221  
ASUS43 KFSD 201710  
RWRFSD  
 
WEATHER ROUNDUP FOR SE SOUTH DAKOTA/SW MINNESOTA/NW IOWA  
NATIONAL WEATHER SERVICE SIOUX FALLS SD  
1200 PM CDT SUN AUG 20 2017  
 
NOTE: "FAIR" INDICATES FEW OR NO CLOUDS BELOW 12,000 FEET WITH NO  
SIGNIFICANT WEATHER AND OR S TO VISIBILITY
.  
 
 
SDZ038>040-050-052>070-201800-  
SOUTHEAST SOUTH DAKOTA  
 
CITY SKY/WX TMP DP RH WIND PRES REMARKS
 
BROOKINGS CLOUDY 73 60 63 N10 30.00R  
CHAMBERLAIN SUNNY 77 56 48 NE13 30.00R  
HURON SUNNY 75 55 49 NE12 29.99F  
MADISON FAIR 73 73 100 NE8 30.01R  
MITCHELL PTSUNNY 77 68 73 N7 29.99F  
SIOUX FALLS PTSUNNY 79 68 69 NE7 29.98R  
WINNER FAIR 78 60 53 NE16 30.01R  
YANKTON SUNNY 79 67 66 CALM 29.97S  

 
 
MNZ071-072-080-081-089-090-097-098-201800-  
SOUTHWEST MINNESOTA  
 
CITY SKY/WX TMP DP RH WIND PRES REMARKS
 
FAIRMONT SUNNY 78 66 66 SW6 29.97F  
JACKSON SUNNY 77 64 65 CALM 29.99S  
LUVERNE SUNNY 77 63 61 NE6 29.99S  
MARSHALL CLOUDY 71 64 78 N6 29.99R  
MONTEVIDEO CLOUDY 70 63 78 N9 29.98R  
PIPESTONE CLOUDY 77 64 65 NE5 30.00R  
REDWOOD FALLS MOSUNNY 77 66 68 N6 29.95S  
TRACY MOSUNNY 73 67 80 N6 29.98S  
WINDOM SUNNY 77 64 65 N3 29.98S  
WORTHINGTON SUNNY 78 66 66 VRB5 30.00R HAZE  

 
 
IAZ001>003-012>014-020>022-031-032-NEZ013-014-SDZ071-201800-  
NORTHWEST IOWA  
 
CITY SKY/WX TMP DP RH WIND PRES REMARKS
 
CHEROKEE SUNNY 80 67 64 S8 29.97S  
DENISON SUNNY 79 66 65 VRB3 29.99S  
ESTHERVILLE SUNNY 78 66 66 SW7 29.98R  
ORANGE CITY SUNNY 79 68 69 S6 29.97S  
SHELDON MOSUNNY 81 66 61 SE7 29.95F  
SIOUX CITY SUNNY 79 68 69 S10 29.97R  
SPENCER MOSUNNY 79 64 60 SW7 29.98S  
STORM LAKE N/A 77 68 73 S9 29.98F  

 
 
ABBREVIATIONS USED IN REMARKS  
TC - TEMPERATURE IN CELSIUS  
WCI - WIND CHILL INDEX  
HX - HEAT INDEX  
VSB - VISIBILITY  
 
 
 
CLICK HERE TO GO TO PREVIOUS BULLETINS.

The Nexlab SD Page
The Nexlab IA Page
The Nexlab MN Page
The Nexlab NE Page Main Text Page